TimeCDT,TemperatureF,Dew PointF,Humidity,Sea Level PressureIn,VisibilityMPH,Wind Direction,Wind SpeedMPH,Gust SpeedMPH,PrecipitationIn,Events,Conditions,WindDirDegrees,DateUTC
12:15 AM,78.3,65.5,65,30.02,10.0,SW,9.2,-,N/A,,Clear,220,2013-09-11 05:15:00
12:35 AM,78.4,65.7,65,30.02,10.0,SW,10.4,-,N/A,,Clear,220,2013-09-11 05:35:00
12:55 AM,77.7,66.0,67,30.02,10.0,SW,9.2,-,N/A,,Clear,220,2013-09-11 05:55:00
1:15 AM,78.4,65.8,65,30.02,10.0,SW,11.5,-,N/A,,Clear,230,2013-09-11 06:15:00
1:55 AM,78.3,64.9,63,30.02,10.0,SW,10.4,-,N/A,,Clear,230,2013-09-11 06:55:00
2:15 AM,78.4,64.6,62,30.02,10.0,WSW,10.4,-,N/A,,Clear,240,2013-09-11 07:15:00
2:35 AM,78.3,64.8,63,30.02,10.0,WSW,9.2,-,N/A,,Clear,240,2013-09-11 07:35:00
2:55 AM,78.1,64.8,63,30.03,10.0,SW,9.2,-,N/A,,Clear,230,2013-09-11 07:55:00
3:15 AM,77.9,64.8,64,30.03,10.0,WSW,9.2,-,N/A,,Clear,240,2013-09-11 08:15:00
3:35 AM,77.0,64.4,65,30.03,10.0,WSW,8.1,-,N/A,,Clear,240,2013-09-11 08:35:00
3:55 AM,77.0,64.6,65,30.03,10.0,WSW,10.4,-,N/A,,Clear,240,2013-09-11 08:55:00
4:15 AM,77.4,64.8,65,30.03,10.0,WSW,9.2,-,N/A,,Clear,240,2013-09-11 09:15:00
4:35 AM,76.8,64.6,66,30.03,10.0,SW,9.2,-,N/A,,Scattered Clouds,230,2013-09-11 09:35:00
4:55 AM,76.5,64.8,67,30.03,10.0,SW,8.1,-,N/A,,Scattered Clouds,230,2013-09-11 09:55:00
5:15 AM,75.6,64.6,69,30.03,10.0,SW,8.1,-,N/A,,Clear,230,2013-09-11 10:15:00
5:35 AM,75.4,64.4,69,30.03,10.0,WSW,8.1,-,N/A,,Scattered Clouds,240,2013-09-11 10:35:00
5:55 AM,75.7,64.2,67,30.04,10.0,WSW,8.1,-,N/A,,Scattered Clouds,240,2013-09-11 10:55:00
6:15 AM,75.4,64.4,69,30.04,10.0,WSW,8.1,-,N/A,,Clear,250,2013-09-11 11:15:00
6:35 AM,75.2,64.4,69,30.05,10.0,WSW,8.1,-,N/A,,Clear,240,2013-09-11 11:35:00
6:55 AM,75.2,64.8,70,30.05,10.0,WSW,6.9,-,N/A,,Clear,240,2013-09-11 11:55:00
7:15 AM,74.7,65.1,72,30.06,10.0,SW,5.8,-,N/A,,Clear,230,2013-09-11 12:15:00
7:35 AM,75.2,66.0,73,30.07,10.0,WSW,6.9,-,N/A,,Mostly Cloudy,240,2013-09-11 12:35:00
7:55 AM,77.9,65.3,65,30.06,10.0,WSW,8.1,-,N/A,,Overcast,250,2013-09-11 12:55:00
8:15 AM,77.0,64.9,66,30.06,10.0,WSW,6.9,-,N/A,,Scattered Clouds,250,2013-09-11 13:15:00
8:35 AM,79.2,65.5,63,30.06,10.0,West,9.2,-,N/A,,Scattered Clouds,270,2013-09-11 13:35:00
8:55 AM,80.2,66.4,63,30.06,10.0,West,9.2,-,N/A,,Scattered Clouds,280,2013-09-11 13:55:00
9:15 AM,80.2,66.0,62,30.07,10.0,West,8.1,-,N/A,,Scattered Clouds,270,2013-09-11 14:15:00
9:35 AM,81.0,66.2,61,30.07,10.0,WNW,9.2,-,N/A,,Clear,290,2013-09-11 14:35:00
9:55 AM,81.5,66.4,60,30.07,10.0,West,9.2,-,N/A,,Clear,260,2013-09-11 14:55:00
10:15 AM,81.9,66.6,60,30.06,10.0,West,6.9,-,N/A,,Clear,260,2013-09-11 15:15:00
10:35 AM,83.7,67.3,58,30.06,10.0,SW,6.9,-,N/A,,Clear,220,2013-09-11 15:35:00
10:55 AM,84.2,66.6,55,30.06,10.0,SSW,6.9,-,N/A,,Clear,210,2013-09-11 15:55:00
11:15 AM,85.3,67.6,55,30.06,10.0,SW,5.8,-,N/A,,Clear,230,2013-09-11 16:15:00
11:35 AM,86.0,67.6,54,30.05,10.0,SW,4.6,-,N/A,,Clear,220,2013-09-11 16:35:00
11:55 AM,86.5,67.6,53,30.05,10.0,WSW,5.8,-,N/A,,Clear,240,2013-09-11 16:55:00
12:15 PM,87.3,68.4,53,30.04,10.0,SSW,10.4,-,N/A,,Clear,210,2013-09-11 17:15:00
12:35 PM,88.7,68.4,51,30.04,10.0,SW,9.2,-,N/A,,Clear,230,2013-09-11 17:35:00
12:55 PM,89.2,67.5,48,30.04,10.0,WSW,10.4,-,N/A,,Scattered Clouds,240,2013-09-11 17:55:00
1:15 PM,90.7,67.5,46,30.04,10.0,WSW,11.5,19.6,N/A,,Clear,240,2013-09-11 18:15:00
1:35 PM,91.0,66.9,45,30.03,10.0,WSW,15.0,19.6,N/A,,Clear,250,2013-09-11 18:35:00
1:55 PM,89.2,67.5,48,30.03,10.0,West,12.7,-,N/A,,Scattered Clouds,270,2013-09-11 18:55:00
2:15 PM,88.9,65.5,46,30.03,10.0,WNW,11.5,18.4,N/A,,Clear,290,2013-09-11 19:15:00
2:35 PM,89.2,66.6,47,30.03,10.0,WNW,8.1,17.3,N/A,,Clear,290,2013-09-11 19:35:00
2:55 PM,87.8,67.1,50,30.03,10.0,WNW,8.1,-,N/A,,Scattered Clouds,290,2013-09-11 19:55:00
3:15 PM,86.4,67.3,53,30.03,10.0,NW,12.7,-,N/A,,Scattered Clouds,310,2013-09-11 20:15:00
3:35 PM,84.6,67.5,56,30.03,10.0,WNW,9.2,-,N/A,,Clear,300,2013-09-11 20:35:00
3:55 PM,84.0,67.8,58,30.03,10.0,WNW,9.2,-,N/A,,Clear,300,2013-09-11 20:55:00
4:15 PM,83.7,68.0,59,30.03,10.0,WNW,10.4,-,N/A,,Clear,300,2013-09-11 21:15:00
4:35 PM,82.6,68.4,62,30.03,10.0,NNW,10.4,-,N/A,,Clear,330,2013-09-11 21:35:00
4:55 PM,81.1,68.7,66,30.03,7.0,NW,9.2,-,N/A,,Scattered Clouds,310,2013-09-11 21:55:00
5:15 PM,80.2,68.9,68,30.04,10.0,NW,8.1,-,N/A,,Scattered Clouds,310,2013-09-11 22:15:00
5:35 PM,80.2,69.1,69,30.03,10.0,WNW,8.1,-,N/A,,Scattered Clouds,300,2013-09-11 22:35:00
5:55 PM,78.8,68.0,69,30.03,10.0,WNW,9.2,-,N/A,,Mostly Cloudy,290,2013-09-11 22:55:00
6:15 PM,78.4,67.6,69,30.03,10.0,West,8.1,-,N/A,,Mostly Cloudy,280,2013-09-11 23:15:00
6:35 PM,78.3,66.9,68,30.03,10.0,West,9.2,-,N/A,,Scattered Clouds,280,2013-09-11 23:35:00
6:55 PM,77.9,66.6,68,30.02,10.0,WNW,6.9,-,N/A,,Scattered Clouds,290,2013-09-11 23:55:00
7:15 PM,77.2,66.7,70,30.02,10.0,West,6.9,-,N/A,,Clear,280,2013-09-12 00:15:00
7:35 PM,75.7,66.6,73,30.01,10.0,Calm,Calm,-,N/A,,Scattered Clouds,0,2013-09-12 00:35:00
7:55 PM,75.7,66.7,74,30.01,10.0,West,3.5,-,N/A,,Scattered Clouds,260,2013-09-12 00:55:00
8:15 PM,75.2,67.1,76,30.02,10.0,NW,3.5,-,N/A,,Mostly Cloudy,310,2013-09-12 01:15:00
8:35 PM,75.4,67.3,76,30.02,10.0,WNW,4.6,-,N/A,,Overcast,300,2013-09-12 01:35:00
8:55 PM,75.2,68.0,78,30.03,10.0,West,4.6,-,N/A,,Mostly Cloudy,270,2013-09-12 01:55:00
9:15 PM,74.8,68.2,80,30.03,10.0,SW,5.8,-,N/A,,Scattered Clouds,230,2013-09-12 02:15:00
9:35 PM,73.9,67.5,80,30.02,10.0,West,3.5,-,N/A,,Clear,260,2013-09-12 02:35:00
9:55 PM,73.6,67.3,81,30.02,10.0,West,5.8,-,N/A,,Scattered Clouds,270,2013-09-12 02:55:00
10:15 PM,73.4,67.6,82,30.02,10.0,WSW,5.8,-,N/A,,Scattered Clouds,240,2013-09-12 03:15:00
10:35 PM,73.9,68.0,82,30.03,10.0,WSW,6.9,-,N/A,,Mostly Cloudy,240,2013-09-12 03:35:00
10:55 PM,73.9,68.2,82,30.03,10.0,SW,5.8,-,N/A,,Mostly Cloudy,230,2013-09-12 03:55:00
11:15 PM,73.2,68.0,84,30.03,10.0,WSW,3.5,-,N/A,,Overcast,240,2013-09-12 04:15:00
11:35 PM,73.4,67.8,83,30.03,10.0,West,5.8,-,N/A,,Mostly Cloudy,260,2013-09-12 04:35:00
11:55 PM,72.9,68.0,85,30.02,10.0,West,5.8,-,N/A,,Mostly Cloudy,260,2013-09-12 04:55:00